Starlink 35638

operational
NORAD ID: 66169 Int'l Des: 2025-240 Owner: SPXS Country: US Constellation: starlink
LEOCIRCULAR

About Starlink 35638

Description loading...

Live Position

Loading 3D Globe...

Upcoming Passes

Altitude History

Altitude vs Time

uPlot chart will show altitude changes over time

Two-Line Element Set

1 66169C 25240AA 25298.74284722 .00618710 00000+0 10016-2 0 2987
2 66169 53.1575 338.8140 0009119 266.1675 328.7054 16.02006146 12
Epoch: Oct 25, 2025 • Age: 144 hours

Current Status

Altitude 254.5 km
Velocity 7.76 km/s
Sub-Earth Point 37.67°N, 51.16°E
Launch Date Oct 25, 2025
Age 6 days
Type internet

Technical Details

Classification Payload
Mass 575.00 kg
Dry Mass 530.00 kg
Total Mass 575.00 kg
Length 0.30 m
Diameter 4.10 m
Span 29.00 m
Shape Box + pan
Manufacturer SPXS
Bus Type Starlink V2MO
Phase Status In Orbit
Owner/State SPXS/US

Large Constellations

Loading constellations...